User: anonymous   Login
Location: Phoenix
(33.4480°N, 112.0730°W)
Time: 22:28:43
(UTC-07:00)
Language:

Hubble Space Telescope - Orbit

View from above orbital plane
View from above orbital plane
View from above satellite
View from above satellite

Ground track
Ground track

The orbit data is extracted from the following two-line orbital elements,

1 20580U 90037B   16211.78666574  .00000547  00000-0  23037-4 0  9999
2 20580  28.4709 337.3902 0002652 310.1577 175.3608 15.08437746241555
Epoch (UTC): 29 July 2016 18:52:47
Eccentricity: 0.0002652
inclination: 28.4709°
perigee height: 539 km
apogee height: 543 km
right ascension of ascending node: 337.3902°
argument of perigee: 310.1577°
revolutions per day: 15.08437746
mean anomaly at epoch: 175.3608°
orbit number at epoch: 24155

The dashed part of the orbit path shows where the satellite is in the earth's shadow,  

DLR